Atlanta Dekalb, GA

4:54 PM EDT on May 23, 2018 (GMT -0400)
Dekalb-Peachtree

Weather History for KPDK - March, 2014

Change the Weather History Date:

Tuesday, March 18, 2014

  Actual Average Record
Temperature  
Mean Temperature 42 °F 54 °F  
Max Temperature 49 °F 65 °F 82 °F (2012)
Min Temperature 34 °F 43 °F 34 °F (2007)
Degree Days  
Heating Degree Days 23 11  
Month to date heating degree days 274 246  
Since 1 July heating degree days 2922 2647  
Cooling Degree Days 0 0  
Month to date cooling degree days 0 0  
Year to date cooling degree days 0 0  
Moisture  
Dew Point 36 °F    
Average Humidity 83    
Maximum Humidity 96    
Minimum Humidity 70    
Precipitation  
Precipitation 0.00 in 0.17 in 0.49 in (2013)
Month to date precipitation 2.40 3.02  
Year to date precipitation 8.76 12.83  
Snow  
Snow 0.00 in - - ()
Month to date snowfall 0.0  
Since 1 July snowfall T  
Snow Depth -    
Sea Level Pressure  
Sea Level Pressure 30.00 in    
Wind  
Wind Speed 6 mph (East)    
Max Wind Speed 10 mph    
Max Gust Speed 17 mph    
Visibility 8 miles    
Events      
T = Trace of Precipitation, MM = Missing Value Source: NWS Daily Summary

Daily Weather History Graph

Daily Weather History Graph

Search for Another Location

Airport or City:

Astronomy

Mar. 18, 2014 Rise Set
Actual Time 7:43 AM EDT 7:47 PM EDT
Civil Twilight 7:18 AM EDT 8:12 PM EDT
Nautical Twilight 6:49 AM EDT 8:41 PM EDT
Astronomical Twilight 6:20 AM EDT 9:10 PM EDT
Moon 9:56 PM EDT (3/18) 8:38 AM EDT (3/18)
Length of Visible Light 12h 53m
Length of Day
12h 03m
Waning Gibbous, 96% of the Moon is Illuminated
Mar 18
Waning Gibbous
Mar 23
Last Quarter
Mar 30
New
Apr 7
First Quarter
Apr 15
Full

Hourly Weather History & Observations

Time (EDT) Temp. Windchill Dew Point Humidity Pressure Visibility Wind Dir Wind Speed Gust Speed Precip Events Conditions
12:53 AM 37.0 °F 32.4 °F 34.0 °F 89% 29.90 in 8.0 mi East 5.8 mph - N/A   Overcast
1:53 AM 36.0 °F 29.6 °F 33.1 °F 89% 29.90 in 8.0 mi ENE 8.1 mph - N/A   Overcast
2:53 AM 36.0 °F 31.1 °F 33.1 °F 89% 29.89 in 3.0 mi Variable 5.8 mph - N/A   Overcast
3:53 AM 36.0 °F 28.5 °F 33.1 °F 89% 29.88 in 4.0 mi NE 10.4 mph - N/A   Overcast
4:53 AM 35.1 °F 29.3 °F 33.1 °F 92% 29.89 in 4.0 mi Variable 6.9 mph - N/A   Overcast
5:45 AM 33.8 °F 29.6 °F 32.0 °F 93% 29.88 in 2.5 mi East 4.6 mph - N/A   Overcast
5:53 AM 34.0 °F 29.8 °F 32.0 °F 92% 29.92 in 3.0 mi ENE 4.6 mph - N/A   Overcast
6:53 AM 35.1 °F 28.6 °F 32.0 °F 89% 29.91 in 8.0 mi NE 8.1 mph - N/A   Overcast
7:53 AM 36.0 °F 30.3 °F 33.1 °F 89% 29.92 in 7.0 mi NE 6.9 mph - N/A   Overcast
8:53 AM 36.0 °F 32.1 °F 33.1 °F 89% 29.96 in 6.0 mi East 4.6 mph - N/A   Overcast
9:53 AM 37.0 °F 31.6 °F 33.1 °F 86% 29.99 in 8.0 mi Variable 6.9 mph - N/A   Overcast
10:53 AM 39.0 °F 34.0 °F 34.0 °F 82% 30.03 in 8.0 mi East 6.9 mph - N/A   Overcast
11:00 AM 39.2 °F 35.9 °F 33.8 °F 81% 30.00 in 8.0 mi Variable 4.6 mph - N/A   Overcast
11:53 AM 39.9 °F 35.8 °F 35.1 °F 83% 30.06 in 9.0 mi ENE 5.8 mph - N/A   Overcast
12:53 PM 42.1 °F 37.7 °F 36.0 °F 79% 30.07 in 10.0 mi East 6.9 mph - N/A   Overcast
1:53 PM 44.1 °F 41.5 °F 36.0 °F 73% 30.07 in 10.0 mi East 4.6 mph - N/A   Overcast
2:53 PM 45.0 °F 42.6 °F 37.9 °F 76% 30.05 in 10.0 mi Variable 4.6 mph - N/A   Overcast
3:53 PM 46.0 °F 43.1 °F 37.9 °F 73% 30.05 in 10.0 mi Variable 5.8 mph - N/A   Overcast
4:53 PM 48.0 °F - 39.0 °F 71% 30.02 in 10.0 mi East 8.1 mph - N/A   Overcast
5:53 PM 48.0 °F - 39.0 °F 71% 30.01 in 10.0 mi ESE 5.8 mph - N/A   Overcast
6:53 PM 48.9 °F - 39.9 °F 71% 30.03 in 10.0 mi Variable 4.6 mph - N/A   Overcast
7:53 PM 48.0 °F - 39.9 °F 74% 30.04 in 10.0 mi Variable 3.5 mph - N/A   Overcast
8:53 PM 48.0 °F - 41.0 °F 77% 30.06 in 10.0 mi ESE 3.5 mph - N/A   Overcast
9:53 PM 46.0 °F - 39.9 °F 79% 30.08 in 10.0 mi Calm Calm - N/A   Overcast
10:53 PM 46.0 °F 44.8 °F 39.9 °F 79% 30.10 in 10.0 mi Variable 3.5 mph - N/A   Overcast
11:31 PM 44.6 °F 42.2 °F 39.2 °F 81% 30.08 in 10.0 mi ESE 4.6 mph - N/A   Scattered Clouds
11:50 PM 44.6 °F 40.7 °F 39.2 °F 81% 30.08 in 10.0 mi East 6.9 mph - N/A   Mostly Cloudy
11:53 PM 45.0 °F 41.2 °F 39.9 °F 82% 30.12 in 10.0 mi ESE 6.9 mph - N/A   Mostly Cloudy